Wind_Speed
22 22 22 22 22 22 22 23 23 23 23 23 23 23 23 23 23 23 23 23 23 24 24 23 23 23 23 24 24 23 23 22 20 20 19 18 17 17 16 16 15 14 14 12 10 9 7 6 4 3 5 5 6 7 6 7 8 8 8 7 6 5 4 4 4 3 3 4 7 10 12 11 11 12 10 9 9 9 10 11 12 11 9 7 6 6 11 18
24 23 23 23 23 23 23 23 23 23 23 23 23 23 23 22 22 22 22 21 21 21 21 21 21 20 20 21 21 21 20 18 18 18 17 16 16 16 16 15 14 13 12 10 9 8 6 5 4 2 3 3 5 6 5 7 8 9 9 8 7 4 3 4 5 5 5 5 6 8 11 11 10 12 13 11 7 7 11 13 12 11 12 10 7 8 14 19
26 25 25 25 25 25 25 25 25 24 24 24 24 23 23 23 23 22 22 21 21 21 20 20 19 19 19 19 19 18 17 16 15 15 15 15 15 16 15 14 13 13 12 9 8 7 6 6 4 2 1 2 3 5 6 7 8 9 9 9 8 5 4 5 6 7 7 7 6 7 9 10 10 12 15 14 8 8 11 13 13 12 13 13 10 10 17 22
29 28 28 28 27 27 27 26 26 26 26 26 25 25 25 24 24 23 23 22 22 21 21 20 20 19 19 18 18 17 16 15 14 13 13 13 13 14 15 13 12 12 11 9 8 7 6 6 5 2 0 1 2 4 6 6 7 8 8 9 9 7 6 6 7 7 8 9 8 8 9 10 10 12 16 16 12 11 12 12 12 11 12 13 11 13 21 24
33 33 32 32 32 32 31 30 30 29 28 27 27 26 26 26 25 25 24 23 23 22 22 21 21 20 19 19 18 17 16 15 14 14 13 12 12 13 14 13 12 11 10 8 8 8 7 7 5 4 2 1 1 3 5 5 6 7 7 8 9 8 7 7 8 8 8 10 11 11 11 10 9 11 15 16 15 14 12 9 8 8 11 12 11 19 25 25
35 35 35 36 36 36 35 35 35 33 32 31 30 29 28 27 27 26 25 25 24 23 22 22 22 21 20 20 19 18 17 15 14 14 13 12 12 12 13 12 11 11 10 9 9 8 8 7 6 5 3 2 1 2 4 4 5 6 7 7 8 9 8 6 8 9 9 11 12 13 12 10 9 10 13 16 19 16 11 9 8 7 9 10 17 27 28 25
34 35 36 36 37 37 37 37 38 37 37 36 34 33 31 30 29 28 27 26 25 24 23 23 23 23 22 21 20 18 17 16 15 14 14 13 12 11 12 12 11 11 10 9 9 9 8 8 8 6 5 4 2 2 4 4 4 5 7 7 8 10 8 5 6 9 9 10 12 13 13 11 9 9 12 17 19 15 11 11 11 9 7 14 26 30 29 27
32 33 34 34 35 35 36 36 37 37 38 38 38 37 36 34 33 32 30 29 27 26 25 24 24 24 23 22 21 19 18 16 15 14 14 14 13 12 12 12 11 11 11 10 10 10 9 9 9 8 6 5 2 1 3 4 4 5 7 7 7 9 9 6 5 7 9 10 11 11 11 11 10 11 13 15 16 14 13 12 12 10 10 22 27 27 29 28
29 30 31 31 32 32 33 33 34 35 35 36 37 37 37 37 37 36 35 33 32 30 29 27 26 25 25 24 22 20 19 17 15 15 15 14 13 12 12 12 10 11 11 11 11 11 10 10 10 9 6 5 3 1 2 4 5 6 7 7 7 9 9 8 6 7 10 10 11 11 10 9 10 11 13 13 13 14 14 13 12 10 13 24 26 26 28 27
26 27 28 29 29 30 30 31 32 32 33 33 34 34 35 36 37 37 37 37 36 35 33 32 30 28 27 25 24 22 20 18 17 16 16 15 14 13 12 11 11 12 12 13 12 11 11 11 11 9 7 6 3 1 1 3 5 6 7 6 7 8 9 9 9 9 10 10 11 12 10 8 9 10 11 11 12 13 14 14 14 12 15 23 26 26 27 27
24 25 25 26 27 27 28 29 30 30 31 31 31 31 32 32 33 34 36 36 36 36 36 35 34 32 30 28 26 23 21 20 19 18 17 16 15 13 12 11 12 13 14 13 12 12 12 11 11 9 8 8 4 2 2 3 5 6 6 6 7 8 9 10 10 10 11 11 12 12 10 8 8 8 8 10 11 13 14 16 16 16 18 22 26 27 27 27
22 23 24 25 26 26 26 27 28 29 29 29 29 29 29 29 30 31 31 32 33 34 35 35 36 35 33 32 29 25 22 21 20 19 18 17 16 14 12 12 13 14 15 14 13 14 12 11 11 10 10 9 6 4 3 4 5 5 5 7 7 7 8 10 10 10 11 12 13 12 9 7 8 7 7 9 11 13 15 17 17 18 20 22 25 26 26 27
22 23 24 24 25 25 25 26 26 27 26 26 26 26 26 26 27 27 28 28 29 30 31 32 34 35 35 35 32 27 24 23 21 20 20 19 18 16 14 13 14 14 14 14 13 12 11 12 12 11 11 9 7 5 4 4 4 4 5 7 7 7 8 9 10 10 10 12 13 11 8 7 7 7 7 9 11 14 16 19 18 17 21 23 25 25 25 26
22 22 23 24 24 24 24 24 25 25 24 24 23 23 23 23 23 23 24 24 25 26 27 29 31 33 35 36 33 29 27 25 24 22 21 21 20 17 15 14 14 14 14 14 14 13 12 14 14 14 13 10 9 7 6 5 4 4 5 7 7 7 8 9 10 10 10 12 13 11 8 7 7 7 7 10 12 14 18 20 20 19 22 25 26 27 26 26
20 21 21 22 23 23 22 22 22 22 22 21 21 21 20 19 19 20 20 20 20 22 23 25 27 30 32 33 32 31 30 29 27 25 24 23 22 19 16 16 16 14 14 15 15 14 15 16 16 15 13 12 11 9 7 6 3 4 6 7 8 8 8 8 9 10 9 10 13 12 8 7 6 7 8 10 12 15 19 22 23 22 24 27 28 29 28 28
19 19 19 20 20 20 20 19 19 20 20 19 19 19 18 17 17 17 17 17 18 19 20 22 24 27 29 30 31 33 33 32 31 27 26 25 23 19 16 16 16 14 13 14 13 14 16 17 17 15 13 12 12 10 8 6 3 4 7 8 8 8 9 9 9 10 10 10 13 12 8 7 5 7 9 10 13 15 20 23 25 24 26 28 28 29 29 28
17 17 17 17 17 18 18 18 17 17 17 17 17 17 17 17 17 16 16 16 17 18 19 20 22 24 26 28 30 33 35 35 32 29 28 27 23 19 17 17 16 14 13 13 12 14 17 18 18 16 15 14 13 12 9 5 3 5 8 9 7 7 9 9 9 9 10 11 13 14 9 7 5 6 10 11 13 16 21 24 25 26 26 28 28 29 29 28
14 15 15 15 16 16 16 16 16 16 16 15 15 15 16 17 17 16 16 17 18 19 19 19 21 23 24 26 29 33 35 34 32 30 29 26 22 19 18 18 16 14 13 12 13 15 18 19 18 17 16 15 15 13 9 5 4 6 9 8 7 7 9 9 8 8 10 12 14 14 11 9 8 5 9 12 15 18 22 25 26 25 26 29 29 30 30 28
13 14 14 15 15 15 16 15 15 15 14 14 14 14 15 16 16 16 16 17 18 18 18 18 19 21 22 24 28 31 32 32 32 31 28 25 23 21 19 17 14 12 12 13 14 17 19 20 19 18 17 16 16 13 9 6 5 7 8 7 7 7 8 9 8 7 9 12 13 14 12 10 9 6 6 12 16 20 24 26 27 26 27 30 31 32 31 29
13 13 13 14 14 15 14 14 14 14 13 13 13 13 14 15 15 15 16 16 16 16 17 17 17 18 20 22 26 28 29 31 31 29 27 26 24 21 18 16 14 12 12 14 16 19 20 20 21 19 17 17 17 14 9 7 7 7 7 6 7 7 7 8 7 6 8 12 13 14 13 11 9 5 3 10 17 21 25 27 28 27 29 31 32 32 32 30
12 12 12 13 13 13 13 12 12 12 11 11 12 13 13 14 14 15 15 15 16 16 15 14 14 15 18 21 24 27 29 29 30 29 28 26 23 19 17 15 14 13 14 15 16 18 20 21 21 19 17 18 17 14 10 9 9 8 6 6 8 7 6 7 7 6 8 11 13 14 13 12 10 5 2 8 17 23 26 29 29 29 31 32 32 33 33 32
11 11 11 12 12 11 11 11 10 10 10 10 11 12 13 13 13 13 14 15 16 15 13 13 13 14 16 19 22 25 27 28 28 28 27 25 22 19 17 15 15 15 15 14 14 16 20 23 23 21 19 19 17 14 12 11 10 8 6 8 9 7 5 6 7 6 8 11 13 14 13 12 11 6 3 6 17 24 29 31 31 32 33 33 31 32 35 33
10 10 10 11 10 10 10 9 9 9 9 10 11 11 12 12 12 13 14 15 15 13 12 12 12 12 14 17 21 24 26 27 27 26 25 23 21 20 18 16 17 15 12 12 13 17 22 24 24 22 20 18 16 14 13 12 10 8 7 9 9 6 4 5 7 7 9 10 12 14 14 13 12 8 5 4 13 23 31 33 32 33 34 33 31 33 35 32
9 9 9 9 8 9 9 8 7 7 8 9 10 10 11 11 12 13 14 15 14 12 12 10 9 9 11 15 19 23 26 27 27 26 25 23 21 20 19 19 18 14 11 12 16 21 24 25 24 22 19 18 17 16 15 13 10 8 8 10 8 6 5 4 6 8 9 11 12 14 13 13 13 10 6 2 10 20 30 34 33 35 35 33 33 34 35 32
7 7 7 7 7 7 8 7 6 7 7 8 8 9 10 11 12 12 13 13 12 11 10 9 8 10 12 15 17 20 23 25 27 26 25 25 22 20 20 20 17 14 13 15 19 23 25 24 24 22 21 20 19 17 16 14 11 9 9 9 7 6 5 4 6 8 10 11 12 13 13 14 14 12 9 1 9 17 28 35 34 35 34 32 33 34 34 33
5 5 6 6 6 6 6 6 6 6 6 7 7 8 9 10 10 11 12 11 10 9 8 7 10 13 15 15 15 17 20 23 25 26 27 27 25 23 21 19 17 16 15 17 21 24 24 24 24 24 23 22 20 18 16 14 11 10 9 8 5 4 4 4 6 8 10 12 12 12 13 14 15 14 13 4 7 16 26 34 34 34 33 31 33 34 34 33
5 5 5 5 5 5 6 5 5 5 5 6 6 7 8 8 9 10 10 10 8 9 9 9 11 13 14 15 15 16 19 21 23 26 27 27 26 25 22 19 19 18 17 17 20 22 23 24 25 26 24 23 20 18 16 14 12 12 11 8 4 3 3 3 6 7 10 12 12 12 12 14 14 15 15 8 3 14 26 34 34 33 31 32 34 35 34 33
5 5 5 4 4 5 5 5 4 4 5 6 5 6 7 8 9 10 9 10 8 8 9 10 10 11 12 14 15 16 18 20 23 25 26 26 26 25 22 20 20 20 18 16 17 21 23 24 26 25 23 22 19 17 15 14 14 14 13 9 5 4 3 3 5 7 10 12 12 11 12 13 14 15 15 11 4 10 25 33 32 31 30 33 37 37 35 34
6 5 5 4 4 5 5 4 4 4 5 5 5 6 7 8 9 10 10 11 10 8 8 9 9 10 11 12 13 14 16 20 24 26 26 26 25 24 24 23 23 22 19 17 19 22 24 25 25 23 22 21 18 16 14 15 15 16 15 11 7 5 2 2 5 7 9 11 12 11 12 13 13 14 13 11 7 5 22 31 31 31 32 37 41 39 37 35
6 5 5 4 5 5 5 4 4 5 5 4 5 7 8 9 10 11 11 11 10 8 7 8 9 9 9 10 12 14 15 19 22 25 26 26 25 25 26 25 24 23 20 19 21 22 23 23 22 20 21 20 18 16 15 15 16 16 15 12 7 4 2 2 5 7 8 10 12 11 11 12 13 14 13 10 8 3 15 27 31 32 36 41 42 40 37 35
6 5 5 4 5 5 5 5 5 5 4 4 6 8 9 10 11 12 12 11 9 8 8 9 9 8 9 10 12 14 15 17 20 23 25 26 26 26 27 26 25 23 20 19 21 19 19 19 17 17 19 18 17 16 16 16 17 16 15 12 7 4 2 2 5 7 7 9 12 11 11 12 12 13 13 10 8 6 9 22 31 33 37 41 41 39 37 34
6 5 4 4 5 5 5 5 5 4 4 3 6 8 10 11 12 12 11 10 9 8 8 9 10 9 9 9 10 12 14 15 18 21 23 25 25 25 26 26 25 22 17 16 18 17 15 15 15 16 17 16 14 14 16 16 15 14 13 9 6 3 2 2 4 6 7 8 9 10 11 11 12 13 12 11 9 8 7 17 30 35 38 40 39 37 36 33
5 5 4 4 4 5 6 5 5 4 3 3 5 7 9 10 11 11 10 10 8 8 8 9 10 9 8 8 7 9 12 14 16 19 20 21 23 24 25 25 24 21 17 16 18 17 15 15 16 17 16 13 12 12 14 13 13 13 11 8 5 3 2 3 3 4 6 7 8 10 11 10 11 12 11 11 10 8 8 12 29 37 38 38 36 35 34 32
5 5 4 4 4 5 6 5 5 4 3 2 3 6 8 10 11 10 9 9 8 7 7 8 9 9 8 9 8 7 10 13 15 18 19 19 21 22 23 23 23 21 19 20 20 18 17 17 17 18 17 15 14 14 13 12 11 11 9 7 6 4 3 4 3 5 6 6 8 10 11 8 9 10 10 10 10 8 7 10 28 41 41 39 37 35 33 32
4 5 5 4 5 5 5 5 5 4 3 2 2 4 7 9 10 9 9 9 8 8 8 8 10 11 11 10 9 9 11 13 15 16 18 19 19 20 21 21 21 19 19 21 20 18 17 17 18 19 18 17 17 17 16 12 10 8 6 5 6 5 4 4 3 5 6 6 8 9 9 8 7 8 9 9 10 8 5 12 30 42 45 42 39 35 33 31
4 5 5 5 5 5 5 5 4 3 2 1 1 3 6 8 8 7 7 7 8 7 8 9 11 13 13 13 11 11 11 13 14 15 16 18 19 20 21 21 20 20 20 20 19 18 16 15 18 18 18 18 19 19 18 15 13 10 7 6 7 5 3 3 3 5 6 7 9 9 8 7 6 6 7 9 10 9 5 17 31 38 42 41 37 34 31 30
4 5 5 6 5 5 4 4 4 2 2 1 1 3 5 6 7 6 6 7 7 8 8 9 11 13 14 15 14 13 11 11 12 13 14 16 17 18 20 19 19 19 19 20 20 20 17 17 19 19 19 21 20 18 16 15 14 12 9 10 9 6 4 3 4 6 6 7 10 9 7 5 6 5 7 9 10 10 6 18 33 35 36 37 34 33 31 30
4 4 5 6 6 5 4 4 3 2 1 0 1 3 4 5 7 6 5 6 8 9 10 11 13 15 15 16 17 16 14 12 11 11 11 13 14 16 17 17 18 19 19 21 22 21 21 21 21 20 21 22 19 16 14 13 12 11 12 14 11 7 4 2 3 4 4 6 9 10 8 5 4 5 6 9 10 9 8 13 32 36 34 34 33 32 32 31
4 4 5 5 6 6 4 3 3 2 1 0 1 2 3 5 7 5 4 7 9 10 11 11 14 16 17 18 19 18 17 16 14 13 12 11 11 12 14 14 16 18 19 20 21 22 23 23 22 22 23 21 18 16 14 13 11 11 12 13 11 9 6 3 1 1 4 6 7 9 9 5 3 4 4 7 10 9 10 8 26 35 32 32 32 32 32 30
4 4 4 5 5 6 5 4 3 3 2 1 0 2 3 5 8 7 6 9 10 10 11 11 12 15 17 18 18 18 18 18 17 16 15 14 12 10 11 11 13 16 18 20 21 23 24 24 24 23 23 21 19 17 15 14 13 11 10 9 8 9 7 6 2 2 4 5 6 6 8 5 2 4 4 6 8 8 11 7 20 34 32 31 32 31 30 29
4 4 4 4 4 4 4 4 3 3 3 2 1 2 3 5 8 9 9 10 11 10 10 10 11 14 16 17 16 17 18 18 18 18 18 17 16 13 12 12 13 13 14 16 20 23 24 24 25 25 24 22 20 18 17 16 16 14 12 11 10 11 11 9 4 3 5 4 6 5 5 5 2 4 7 7 8 6 8 7 15 33 34 31 32 31 30 29
5 4 5 5 4 3 2 2 1 1 3 3 3 4 5 6 8 9 11 12 13 11 9 10 12 15 16 16 15 17 18 19 20 21 21 21 19 16 16 17 17 17 16 16 19 22 24 24 26 27 25 23 21 20 19 18 17 15 14 13 13 13 13 11 7 5 5 4 5 5 4 4 2 4 8 8 7 5 5 5 9 26 33 32 30 30 31 30
5 6 6 6 6 4 2 1 1 2 3 4 6 7 7 8 9 10 11 12 13 13 11 11 13 16 16 14 15 17 19 20 21 22 23 22 21 20 20 19 19 20 19 19 20 22 25 25 27 29 26 23 22 22 20 19 17 15 14 14 14 13 13 13 12 10 7 4 3 3 4 4 3 4 6 8 8 6 3 3 5 14 26 33 33 31 31 31
5 6 7 7 7 6 4 3 3 4 4 5 6 8 9 10 11 13 13 12 12 12 12 12 13 16 15 14 15 16 18 20 21 22 22 21 21 21 19 16 16 16 16 17 17 20 23 25 28 30 27 24 23 22 21 20 17 16 15 16 15 15 15 15 15 12 8 5 4 1 3 3 3 4 5 7 8 7 6 5 5 7 15 26 33 34 32 30
4 5 6 7 7 7 6 5 5 7 7 6 6 9 10 12 13 15 16 15 15 14 14 14 14 16 16 15 15 16 19 21 20 20 22 21 20 19 16 13 14 14 15 16 17 19 22 25 28 30 26 23 22 23 24 23 20 18 17 16 16 16 16 16 14 11 9 7 5 1 3 2 3 4 4 5 4 7 8 7 7 8 10 16 25 31 32 29
4 5 5 6 6 7 7 7 7 8 9 8 8 9 12 13 15 16 17 17 18 17 17 17 17 18 18 18 17 17 20 22 20 20 21 20 19 18 15 15 16 16 16 17 19 21 23 26 29 28 25 23 22 24 26 25 23 20 18 16 16 15 16 16 13 10 9 8 6 5 5 3 1 1 3 3 3 6 9 7 8 11 12 14 17 22 26 26
6 5 5 6 6 7 7 8 8 9 10 10 10 11 12 14 16 16 17 18 17 17 18 19 19 20 20 20 19 18 19 20 20 21 21 20 19 18 16 16 16 15 16 17 18 20 23 26 28 28 25 24 24 25 27 26 24 22 19 17 16 15 15 15 13 11 11 9 8 8 8 7 5 3 1 2 3 7 10 9 10 13 15 16 18 19 22 23
8 7 7 7 6 7 8 8 8 9 10 10 10 11 13 15 16 16 17 17 15 14 15 17 18 20 22 22 20 19 18 18 19 21 21 20 19 18 17 17 16 14 15 16 17 19 21 24 28 29 27 26 26 26 27 27 24 23 21 18 17 16 15 14 14 14 13 10 10 10 9 8 7 6 4 1 3 7 10 11 12 14 16 18 20 22 23 24
10 9 9 9 8 8 8 8 8 9 10 11 11 12 13 15 16 15 15 15 14 13 13 14 16 18 22 23 23 21 19 18 19 20 20 20 19 18 18 18 16 15 16 16 16 18 21 22 27 30 29 27 27 26 27 28 25 23 22 19 18 17 17 15 14 14 13 12 11 10 9 8 8 8 5 2 2 5 8 9 12 14 15 16 19 22 24 25
12 11 11 11 10 9 9 9 8 9 10 11 12 13 14 15 15 14 13 13 14 13 13 14 15 17 20 24 25 23 21 19 19 18 18 18 19 19 20 18 16 15 15 16 16 18 20 21 24 29 29 26 26 27 27 29 27 24 23 21 19 18 18 17 15 14 13 11 9 9 8 7 8 9 6 3 4 5 5 7 11 16 15 13 16 20 24 26
14 13 13 12 11 11 10 10 9 9 10 11 12 13 14 15 15 14 13 13 13 13 13 14 15 16 19 22 25 25 24 22 20 19 18 18 19 20 21 20 18 17 16 17 16 17 19 19 21 26 26 23 24 26 27 28 28 26 24 23 21 20 19 17 16 15 13 10 8 9 9 9 9 9 8 5 3 3 3 3 10 17 15 12 14 18 22 25
16 15 15 14 13 13 12 12 11 10 10 11 13 13 14 16 16 15 14 13 14 14 13 13 14 16 19 22 24 25 25 24 24 22 21 20 21 21 22 21 21 20 19 19 18 17 18 17 17 21 23 21 22 25 27 28 28 26 26 24 22 21 21 19 17 17 15 12 10 11 12 11 10 9 8 6 3 0 2 2 8 16 18 15 15 17 19 22
Wind_Direction
257 257 257 257 257 257 258 258 259 259 259 260 260 260 261 260 260 261 261 261 262 263 264 266 266 267 269 271 273 274 276 279 281 282 282 282 282 282 281 282 285 286 290 297 304 309 308 302 309 350 12 15 11 9 16 25 21 15 14 12 16 19 11 355 329 301 275 250 245 248 250 249 248 245 243 246 236 222 210 203 212 211 218 226 196 182 163 160
260 259 259 259 259 259 260 260 260 260 260 260 260 261 261 261 261 261 261 261 262 263 264 265 266 267 267 269 271 273 276 279 280 280 281 279 277 277 276 278 280 280 283 290 295 296 295 287 285 333 3 15 11 9 21 23 15 8 4 4 6 0 346 334 316 295 278 265 249 252 259 261 256 247 243 243 230 202 202 205 211 215 221 220 204 189 169 165
261 261 261 261 261 262 262 262 262 261 261 261 261 261 261 261 261 261 261 261 261 262 263 264 265 265 266 267 269 272 276 278 280 281 280 276 273 273 273 274 275 274 276 281 282 281 278 269 265 301 353 30 5 5 19 15 10 5 359 357 358 348 325 309 302 294 285 277 261 256 266 270 257 244 242 240 227 202 205 209 208 218 227 219 215 194 170 167
262 262 262 262 262 263 263 263 263 262 262 262 261 261 261 261 261 261 260 260 261 261 262 263 264 264 265 266 267 270 273 275 279 280 279 276 273 270 269 269 269 270 271 272 270 267 261 254 247 251 235 92 351 2 20 16 7 360 355 354 355 354 343 332 320 310 298 289 279 272 276 279 265 243 240 240 232 215 210 214 216 226 234 231 225 186 167 168
262 263 263 263 264 264 264 263 263 263 263 262 262 261 260 260 260 260 260 260 260 260 261 262 263 263 263 264 265 267 270 272 274 275 277 276 272 267 265 263 262 263 264 263 259 255 249 243 234 228 208 166 298 8 23 15 8 1 356 350 353 358 353 346 337 327 312 299 290 285 286 286 276 247 236 237 236 226 211 215 225 238 254 250 212 169 165 169
263 263 264 264 264 264 264 264 264 263 263 262 262 261 261 260 259 259 259 259 259 259 260 261 262 262 262 263 264 265 267 268 269 271 273 274 270 265 262 258 255 255 256 252 250 247 241 234 226 220 213 210 238 30 22 5 10 9 2 348 349 358 356 347 333 327 317 305 296 293 292 286 276 253 231 226 232 229 210 207 205 225 261 234 176 161 165 168
262 263 263 263 264 264 264 264 264 263 262 262 261 261 260 260 259 259 258 258 258 258 258 259 260 261 261 261 262 263 264 264 265 266 268 269 266 262 259 254 249 249 250 246 244 243 235 228 222 216 212 216 217 54 20 356 357 357 355 347 349 357 358 352 330 323 319 307 297 296 294 284 273 258 235 224 229 226 210 210 206 213 219 175 163 162 166 166
262 262 262 263 263 263 263 263 263 263 262 261 260 260 259 259 258 258 258 257 257 257 257 257 258 259 259 259 260 261 261 262 262 262 263 264 263 260 255 251 245 244 244 241 241 239 231 223 218 211 207 220 217 63 15 348 336 330 337 340 346 355 359 353 332 325 326 315 300 298 293 282 271 258 243 230 229 223 211 210 211 216 181 163 164 167 166 164
262 262 263 263 263 263 263 263 262 262 262 261 261 260 259 258 257 257 257 257 257 257 256 256 255 257 258 257 257 257 258 259 258 258 259 261 261 258 256 250 239 236 234 232 233 233 228 220 214 205 204 225 216 95 0 333 325 313 318 331 341 349 355 352 342 335 335 329 312 304 294 277 269 257 245 234 227 218 210 203 204 212 179 166 169 171 166 161
264 264 265 264 264 264 263 263 262 262 261 261 260 260 259 258 257 256 256 256 255 255 255 254 253 253 254 255 255 254 254 254 254 253 255 257 257 257 256 248 234 229 229 229 232 231 225 217 212 204 207 224 208 137 317 311 309 303 310 330 337 337 346 348 349 349 342 340 327 315 301 278 268 258 245 232 220 213 208 199 194 199 185 172 172 175 168 160
266 266 266 266 265 265 265 264 263 261 261 260 260 260 259 258 257 256 255 255 254 254 253 252 251 250 250 251 251 250 249 250 250 251 251 253 253 253 252 245 233 227 228 228 226 226 222 214 211 204 209 219 197 165 246 285 296 300 312 331 334 331 342 345 347 353 351 349 340 326 311 284 266 254 237 225 219 212 205 195 187 188 185 176 174 177 170 161
267 267 267 268 267 266 266 265 264 262 261 260 260 259 259 258 257 256 255 254 253 252 251 251 249 247 246 246 246 246 246 246 247 248 249 250 249 248 245 241 236 231 230 229 225 226 222 212 208 202 207 213 192 180 229 268 285 301 322 332 332 333 344 346 343 351 360 357 346 333 320 288 261 245 224 215 214 211 204 193 184 182 182 177 175 178 171 163
268 269 270 270 269 268 267 265 265 264 262 261 260 259 259 258 257 256 255 254 253 252 250 249 247 245 243 242 242 242 242 242 241 242 244 246 245 243 239 237 237 235 233 231 229 228 219 209 202 197 204 209 197 190 219 253 274 302 322 325 328 331 340 345 343 347 2 3 351 339 328 294 254 233 218 213 210 207 200 192 182 181 185 180 175 177 173 165
270 271 272 272 271 270 268 266 265 264 263 261 259 258 258 258 257 256 254 253 252 251 250 248 246 244 242 241 239 238 237 237 236 236 238 240 240 239 236 233 235 232 227 224 225 219 209 205 198 197 201 203 204 202 213 237 258 298 314 315 318 322 329 342 345 346 0 7 359 348 339 309 262 234 216 212 210 203 196 191 183 182 188 184 179 178 174 169
272 273 273 273 272 271 269 267 265 263 261 260 258 256 256 256 255 253 252 252 251 250 249 248 246 244 242 239 236 234 234 233 233 233 234 236 237 236 234 234 235 232 225 222 223 216 206 202 198 199 202 204 210 208 211 225 245 288 301 302 307 315 319 331 341 347 359 7 4 355 343 323 277 241 220 210 208 201 194 190 184 184 189 187 182 177 173 175
272 273 273 273 273 273 271 268 265 263 261 259 257 255 253 252 251 250 249 248 247 247 248 248 247 245 241 237 233 231 231 232 233 232 233 236 236 235 234 236 236 232 227 223 221 216 208 203 199 199 203 210 217 213 210 214 234 277 289 291 303 318 318 320 326 342 358 3 2 359 345 328 291 239 225 212 205 199 193 189 185 186 190 187 182 176 175 178
271 272 272 273 273 274 273 271 269 266 264 261 258 255 253 251 249 247 245 244 244 245 246 247 247 245 239 234 230 228 229 231 231 230 232 234 234 233 231 233 233 229 226 219 212 210 208 205 200 198 202 215 224 220 210 208 230 271 283 288 307 321 315 312 312 333 357 359 354 357 349 331 312 245 225 215 206 199 194 189 186 188 190 188 182 177 176 178
270 272 272 273 275 275 275 274 272 269 266 263 260 256 253 250 246 244 243 243 243 245 248 249 248 243 236 231 227 228 230 230 229 229 231 233 233 231 230 231 234 234 227 213 203 205 207 206 202 200 205 218 226 223 213 209 235 270 279 291 313 315 305 303 305 324 354 1 354 356 355 338 330 290 230 217 209 202 196 190 186 187 189 187 181 177 177 179
272 273 274 276 278 278 278 276 272 268 266 263 260 255 252 248 243 241 241 244 247 251 254 255 251 244 234 228 227 228 229 227 227 229 230 231 230 228 229 230 233 233 226 211 200 202 207 206 203 201 208 219 224 223 216 213 236 261 272 292 309 301 296 297 305 325 352 4 358 358 1 350 341 328 242 221 213 205 200 191 185 186 187 186 182 177 178 180
274 276 278 279 280 281 282 279 273 267 264 261 258 252 249 245 239 239 243 248 252 254 257 259 258 249 234 225 225 226 226 224 224 225 226 228 228 227 227 227 228 224 220 213 203 203 205 204 203 202 209 220 226 225 219 218 231 246 261 283 288 286 294 297 309 336 354 3 0 358 5 2 351 341 246 225 218 210 202 193 185 185 186 185 181 178 180 182
275 277 279 281 281 282 284 282 276 268 263 258 254 250 244 240 237 239 243 247 249 252 257 263 263 252 235 224 221 223 223 221 221 222 223 225 226 227 227 227 224 216 214 214 208 206 202 201 203 202 208 221 226 225 221 224 230 236 250 268 272 277 296 305 315 342 356 1 0 358 3 8 4 348 259 220 213 208 201 192 185 184 186 186 183 181 181 183
276 278 280 281 282 284 286 285 278 268 262 255 251 246 241 239 237 240 243 243 244 249 257 262 258 248 235 225 219 220 220 218 219 220 222 223 224 225 225 224 220 216 215 211 205 204 201 200 203 202 208 219 224 224 226 230 231 235 248 261 268 275 294 313 322 338 354 0 1 359 0 9 12 356 304 207 201 202 196 190 185 182 185 188 186 184 183 183
278 280 281 283 286 288 289 287 279 268 260 252 246 243 241 239 238 241 243 242 243 247 255 260 257 246 235 226 220 218 216 214 214 215 217 218 220 222 221 219 219 220 220 206 193 197 202 203 203 203 207 216 222 227 231 233 232 234 245 259 267 273 282 310 327 336 349 357 2 0 358 5 13 5 334 225 204 205 196 188 183 180 183 187 187 185 183 182
281 282 283 286 291 292 292 289 280 266 255 249 245 243 241 238 239 241 238 237 239 245 250 251 244 235 229 226 222 218 215 212 209 208 208 208 212 217 218 219 219 217 213 199 191 196 203 204 204 203 205 212 217 224 231 232 231 231 240 259 270 275 276 300 333 340 346 352 359 1 359 1 9 12 359 267 219 215 197 186 182 181 183 187 187 184 182 181
286 287 287 290 295 296 295 293 282 267 258 254 250 245 242 240 241 237 230 231 236 241 245 238 222 212 214 220 220 218 216 211 207 205 204 202 203 209 215 218 218 215 207 198 197 200 203 203 203 203 205 210 213 218 227 230 232 231 239 260 273 279 280 302 336 342 347 351 354 357 358 358 4 12 13 357 218 214 193 184 184 182 183 186 186 184 182 182
300 299 296 297 300 300 302 301 288 275 267 259 253 248 243 239 234 227 226 229 233 231 223 212 211 210 211 215 216 216 215 210 207 205 204 201 198 201 209 212 213 215 209 201 202 203 203 202 203 206 208 210 211 214 224 231 235 237 242 257 268 277 287 315 340 345 352 353 350 350 355 357 0 8 12 20 210 209 189 183 185 182 181 184 184 181 181 184
323 318 311 307 308 310 313 307 292 283 274 262 256 247 236 222 213 218 223 221 221 217 203 199 209 213 213 212 210 210 210 208 206 206 206 203 200 200 201 204 210 213 210 206 207 206 203 202 205 208 208 209 210 214 224 232 237 241 242 243 242 264 290 331 347 350 353 352 346 345 354 356 358 5 8 12 226 211 192 184 184 181 180 183 181 179 180 183
335 330 324 320 320 325 322 310 295 287 275 264 253 233 215 202 205 215 213 201 198 202 198 200 208 211 211 210 210 210 207 203 201 202 204 204 203 201 198 202 209 212 209 203 204 208 206 205 208 207 207 209 211 216 225 230 236 243 244 240 231 246 276 346 353 352 348 346 342 342 353 356 358 8 8 4 346 209 191 184 183 182 183 183 179 177 180 184
338 335 333 331 335 336 328 313 301 290 281 272 247 218 201 200 208 210 201 190 190 195 194 197 204 207 208 209 211 213 209 204 202 201 201 202 204 201 198 202 207 212 209 196 199 207 207 208 209 206 206 209 213 219 228 234 237 243 247 243 231 235 257 350 350 351 342 337 340 342 353 358 357 6 9 0 352 208 188 185 184 186 186 182 178 178 181 184
340 340 338 341 346 343 331 317 307 298 293 279 237 211 203 204 203 202 199 191 191 198 195 192 198 203 204 205 208 210 209 208 207 205 201 200 201 200 200 203 208 212 206 198 206 211 208 209 210 207 209 211 214 225 238 247 247 246 248 249 243 243 260 339 343 345 334 329 339 346 354 359 357 360 4 358 347 278 196 190 189 187 183 178 177 178 181 182
342 342 341 347 351 343 333 325 319 312 306 282 234 216 209 204 199 199 198 192 193 199 192 183 185 192 197 201 205 208 209 208 207 207 203 200 199 201 204 207 210 214 206 200 211 215 211 210 209 208 211 212 218 233 248 257 256 250 250 254 253 246 256 326 338 338 331 329 339 351 355 355 357 355 352 352 345 311 227 197 192 188 180 177 177 179 180 181
344 344 343 350 351 341 339 339 332 324 322 293 244 225 218 209 203 202 199 194 196 197 190 182 181 185 189 193 204 210 209 205 204 206 205 203 201 201 207 211 213 215 206 201 213 216 211 207 204 207 211 214 226 241 250 253 250 243 242 245 238 221 242 306 331 333 333 331 339 358 0 349 349 351 342 342 345 319 265 204 193 188 179 177 179 179 179 181
344 343 342 348 346 342 348 351 342 338 337 302 255 231 221 212 207 208 207 204 205 203 195 184 179 180 175 173 189 208 209 201 200 203 203 203 204 203 207 212 215 213 200 197 211 213 204 198 195 201 207 210 220 232 236 233 227 225 224 223 219 210 246 281 308 334 336 330 338 0 5 346 339 347 341 335 338 322 290 219 194 184 176 177 180 180 181 182
342 339 340 344 340 344 357 0 353 352 348 305 262 231 218 212 209 210 211 211 216 218 206 184 171 168 165 164 168 182 194 193 195 199 199 200 204 207 210 213 216 213 202 201 209 208 199 193 190 195 199 200 207 217 222 219 219 226 224 219 221 220 242 260 287 340 341 332 347 3 2 344 332 341 339 329 330 323 300 219 186 175 171 176 180 181 184 184
336 335 335 336 336 346 2 6 1 1 359 330 269 230 219 217 216 214 214 216 219 220 214 193 172 162 160 162 162 164 173 181 188 195 196 196 199 204 209 213 216 215 209 210 214 210 202 195 193 196 196 199 208 219 227 228 227 229 219 214 221 224 243 258 288 338 336 334 359 5 352 335 322 329 328 320 322 322 288 196 181 173 171 176 179 182 185 185
327 332 331 332 335 343 5 10 3 8 14 351 265 221 216 217 216 210 206 209 211 211 214 203 182 167 161 159 155 156 161 171 179 186 192 196 198 201 203 207 210 212 212 212 214 213 204 196 199 198 195 202 213 224 232 233 233 231 219 217 225 226 241 265 304 322 326 349 10 8 350 331 315 324 329 317 317 323 270 192 183 177 175 175 177 181 185 186
315 328 328 329 334 339 0 10 356 4 27 352 227 205 210 214 208 197 193 198 203 203 201 195 182 168 162 156 150 149 150 159 171 176 184 193 199 204 205 204 205 208 210 209 209 209 199 196 202 199 197 206 216 224 229 233 235 230 220 227 234 230 232 264 304 307 318 0 16 13 3 339 306 312 337 329 318 320 284 199 186 180 178 177 177 180 184 188
299 317 324 328 334 338 354 9 353 347 11 69 164 188 199 202 196 184 183 196 203 202 194 183 171 161 157 155 152 150 146 146 158 167 175 185 192 200 203 203 203 206 209 207 206 203 196 197 203 200 201 210 216 218 221 230 236 226 223 232 236 227 218 245 295 302 317 352 13 18 13 355 302 300 333 342 329 326 316 218 193 183 180 179 179 182 185 190
282 299 310 320 333 339 347 357 348 334 316 1 136 182 177 179 185 179 180 196 201 206 205 193 175 165 161 158 155 153 150 150 155 156 158 167 178 188 195 199 201 203 207 206 205 201 197 199 201 202 205 208 209 209 211 219 224 222 226 234 236 229 207 180 193 306 318 329 358 18 15 5 322 312 331 349 338 335 339 262 199 185 180 182 184 186 188 190
274 281 293 308 328 337 342 345 344 337 319 324 114 196 176 172 179 175 179 192 196 205 213 212 194 179 172 164 157 154 152 152 156 155 151 153 157 165 178 184 190 198 203 203 202 200 200 200 197 199 204 202 199 201 206 207 202 198 203 211 221 221 204 182 184 289 296 311 335 6 20 20 349 335 337 346 341 340 347 309 198 184 182 186 188 190 191 190
280 271 276 290 311 328 343 350 350 336 308 291 254 221 203 188 181 175 178 189 201 212 218 218 205 190 182 175 162 152 148 149 154 154 148 146 144 148 160 169 173 182 193 200 203 202 201 199 192 192 199 199 195 199 203 201 196 190 192 197 203 207 206 196 187 246 254 282 314 333 19 26 346 320 321 334 346 342 344 325 202 188 186 188 190 191 191 191
284 270 261 263 277 302 337 356 350 304 279 262 245 231 220 211 199 190 189 194 204 216 223 220 206 196 193 184 165 152 149 149 151 150 148 149 150 155 166 174 174 172 176 187 196 198 198 196 191 191 196 197 195 199 199 199 201 201 204 209 209 209 208 197 185 205 222 248 300 314 358 7 334 303 299 305 322 320 325 323 220 196 190 190 192 192 192 194
282 275 267 258 257 264 265 223 194 224 245 244 238 233 227 225 224 219 214 212 213 218 224 224 215 210 205 187 169 165 159 153 152 155 157 159 164 171 178 181 180 178 179 181 186 191 194 194 192 193 196 196 197 199 199 202 207 208 211 213 208 202 199 197 202 207 204 218 283 318 356 349 323 312 297 286 288 284 259 274 251 210 198 194 193 193 195 198
288 284 280 272 265 260 246 213 189 199 220 234 237 234 229 229 235 237 237 236 235 233 234 234 230 229 220 194 177 178 171 164 166 168 168 169 174 178 181 182 181 181 180 178 179 187 193 193 192 194 195 195 199 202 202 207 211 210 213 214 212 210 208 210 216 213 203 212 244 297 26 353 307 306 309 295 278 250 214 201 220 230 214 201 196 196 198 199
302 291 286 283 279 271 258 237 207 198 205 219 231 233 230 229 233 239 242 243 244 246 247 242 237 236 230 210 192 186 181 181 182 179 177 180 181 178 175 172 170 170 174 176 176 181 188 192 194 195 194 195 202 205 205 208 213 215 218 218 218 219 216 217 220 215 204 205 211 162 71 36 319 304 307 316 285 231 212 194 190 211 227 216 203 199 199 200
307 295 286 283 282 274 265 256 236 219 212 211 217 226 230 230 232 238 243 244 245 247 249 246 237 232 229 218 205 197 193 193 194 190 187 187 183 177 171 166 164 168 175 179 179 178 182 188 192 194 194 198 207 207 205 207 212 218 222 220 218 219 220 223 223 216 206 197 182 143 118 123 109 314 283 314 307 238 229 216 196 196 210 220 213 204 201 201
298 293 284 280 279 273 265 259 253 244 232 223 217 219 226 232 236 241 246 249 247 244 245 245 239 231 228 221 213 207 203 201 201 199 195 189 181 178 176 167 165 173 176 179 186 184 181 185 191 191 192 200 210 210 207 207 213 219 222 220 219 221 227 229 223 217 213 195 170 154 149 154 150 140 187 309 299 243 233 231 213 194 194 207 213 211 209 207
288 285 284 282 280 275 268 260 256 254 249 242 233 224 225 233 238 241 245 252 254 246 241 243 240 233 229 225 220 214 210 208 207 205 202 195 182 179 179 170 167 176 178 181 193 191 181 183 189 191 194 203 211 214 212 211 215 222 224 223 223 225 231 232 225 223 221 199 173 168 167 164 152 138 137 350 294 242 233 234 219 196 188 197 206 210 212 213
282 279 279 281 280 278 275 268 260 255 252 252 248 238 233 236 241 245 247 252 256 251 243 241 240 236 230 227 224 220 216 215 212 210 210 205 191 183 180 175 174 181 184 188 195 191 184 185 188 191 197 206 211 215 216 216 220 226 228 227 228 230 237 239 231 223 215 199 184 180 179 169 149 132 133 171 232 226 227 234 222 201 188 188 198 206 211 214
279 277 275 276 276 276 277 273 268 259 254 253 252 249 246 245 248 254 256 257 257 254 248 241 238 236 233 230 227 223 220 217 214 214 218 215 202 191 185 183 186 189 191 196 198 192 190 192 191 193 199 207 213 215 217 218 221 226 229 230 230 233 240 242 233 218 206 199 194 186 180 171 153 137 132 160 203 206 213 230 221 207 193 182 188 199 207 212
275 274 273 273 271 270 271 272 271 264 257 254 253 252 253 253 254 258 260 261 261 258 252 245 240 237 235 233 230 226 223 220 216 215 219 221 215 204 196 196 200 200 202 205 204 199 198 199 199 199 203 211 217 217 219 221 222 225 227 229 230 234 241 240 232 220 207 199 195 179 170 177 177 160 142 136 163 203 213 221 207 201 195 184 183 191 199 207
270 271 270 270 268 266 266 266 266 264 258 256 255 253 253 254 256 258 256 255 257 256 251 247 242 239 236 234 234 233 229 225 221 218 218 222 224 220 213 209 209 209 212 214 213 211 208 208 208 206 208 217 221 220 223 226 227 229 229 229 229 233 240 240 232 222 211 205 198 178 172 187 193 176 156 137 108 178 245 219 189 189 190 185 180 183 189 198
Height
5863 5863 5864 5864 5864 5865 5865 5866 5866 5867 5867 5868 5868 5869 5869 5870 5870 5871 5871 5872 5872 5872 5873 5873 5874 5874 5874 5874 5874 5875 5875 5876 5877 5877 5878 5878 5879 5879 5879 5879 5880 5880 5880 5881 5882 5882 5882 5882 5882 5882 5882 5882 5881 5881 5880 5880 5879 5878 5878 5878 5878 5878 5877 5876 5876 5875 5875 5875 5876 5876 5877 5879 5880 5879 5879 5878 5879 5881 5882 5882 5881 5882 5885 5886 5886 5886 5887 5889
5860 5861 5861 5862 5862 5863 5863 5864 5864 5865 5865 5866 5867 5867 5867 5868 5868 5869 5869 5869 5870 5870 5871 5871 5872 5872 5873 5873 5873 5873 5874 5875 5875 5875 5876 5877 5877 5877 5878 5878 5879 5879 5879 5880 5881 5881 5881 5881 5882 5882 5882 5882 5881 5881 5881 5880 5879 5878 5878 5877 5878 5877 5877 5876 5876 5875 5875 5875 5875 5876 5876 5877 5878 5878 5878 5878 5879 5880 5881 5880 5880 5882 5883 5884 5885 5885 5887 5889
5858 5858 5859 5859 5860 5860 5861 5861 5862 5863 5863 5864 5865 5865 5865 5866 5866 5867 5867 5867 5868 5868 5869 5869 5870 5870 5871 5871 5871 5872 5873 5873 5873 5874 5874 5875 5875 5876 5876 5877 5878 5878 5878 5879 5880 5880 5880 5881 5881 5882 5882 5881 5881 5881 5881 5880 5879 5878 5878 5877 5878 5877 5877 5876 5875 5875 5875 5874 5875 5875 5875 5876 5876 5877 5877 5877 5878 5879 5879 5879 5880 5881 5882 5883 5884 5884 5886 5888
5855 5855 5856 5856 5857 5858 5858 5859 5860 5860 5861 5862 5862 5863 5863 5864 5864 5864 5865 5865 5866 5866 5867 5867 5868 5869 5869 5869 5870 5870 5871 5872 5872 5873 5873 5873 5874 5874 5875 5876 5876 5877 5878 5879 5879 5879 5880 5880 5881 5881 5881 5881 5881 5881 5880 5880 5879 5878 5878 5878 5878 5878 5877 5876 5875 5874 5874 5874 5874 5874 5874 5875 5875 5875 5875 5875 5877 5878 5878 5879 5880 5880 5880 5881 5882 5883 5886 5888
5852 5852 5853 5853 5854 5855 5855 5856 5857 5858 5858 5859 5860 5860 5861 5861 5862 5862 5863 5863 5864 5864 5865 5865 5866 5867 5867 5868 5868 5869 5870 5870 5871 5871 5871 5872 5873 5873 5873 5874 5875 5876 5877 5878 5878 5878 5879 5879 5880 5880 5881 5881 5881 5881 5880 5880 5879 5879 5878 5878 5878 5878 5878 5876 5875 5874 5874 5873 5872 5873 5873 5874 5874 5874 5874 5874 5875 5876 5878 5879 5880 5880 5879 5879 5880 5882 5885 5887
5849 5849 5850 5850 5851 5851 5852 5853 5854 5855 5855 5856 5857 5858 5858 5859 5859 5860 5860 5861 5862 5862 5863 5863 5864 5864 5865 5866 5867 5867 5868 5869 5869 5870 5870 5871 5871 5872 5872 5873 5874 5875 5876 5876 5877 5877 5878 5879 5879 5880 5880 5881 5881 5880 5880 5880 5879 5879 5878 5878 5878 5878 5878 5877 5875 5874 5873 5872 5871 5871 5871 5872 5872 5872 5874 5874 5873 5876 5879 5879 5879 5878 5878 5878 5879 5881 5884 5887
5845 5846 5846 5847 5847 5848 5849 5849 5850 5851 5852 5853 5854 5855 5855 5856 5857 5857 5858 5858 5859 5860 5861 5861 5862 5862 5863 5864 5865 5866 5867 5868 5868 5868 5869 5869 5870 5870 5871 5872 5873 5874 5875 5875 5876 5876 5877 5878 5879 5879 5879 5880 5880 5880 5879 5879 5879 5879 5878 5878 5878 5878 5878 5877 5875 5874 5873 5872 5870 5870 5870 5870 5871 5871 5872 5872 5873 5877 5880 5879 5878 5877 5876 5878 5879 5881 5883 5885
5842 5843 5843 5843 5844 5845 5845 5846 5846 5847 5848 5849 5850 5851 5852 5853 5853 5854 5855 5856 5857 5858 5858 5859 5860 5860 5861 5862 5863 5864 5865 5866 5867 5867 5867 5868 5869 5869 5870 5871 5872 5873 5873 5874 5875 5875 5876 5877 5878 5878 5879 5879 5879 5879 5879 5879 5879 5879 5878 5878 5878 5878 5878 5877 5875 5873 5872 5871 5869 5868 5868 5868 5868 5869 5869 5870 5873 5876 5878 5878 5879 5878 5877 5878 5880 5882 5883 5885
5839 5840 5840 5840 5841 5841 5842 5842 5843 5844 5844 5845 5846 5847 5848 5849 5850 5851 5851 5852 5854 5855 5856 5857 5858 5858 5859 5860 5861 5863 5863 5864 5865 5865 5866 5867 5867 5868 5868 5869 5871 5872 5872 5873 5873 5874 5875 5876 5877 5878 5878 5879 5879 5878 5879 5879 5879 5879 5878 5877 5877 5877 5877 5877 5875 5873 5871 5870 5868 5867 5866 5867 5867 5867 5867 5869 5872 5875 5876 5878 5880 5879 5878 5879 5881 5884 5885 5886
5837 5837 5837 5837 5838 5838 5839 5839 5839 5840 5841 5841 5842 5843 5844 5845 5845 5846 5847 5849 5850 5851 5853 5854 5855 5856 5856 5858 5859 5861 5862 5863 5863 5863 5864 5865 5866 5867 5867 5868 5869 5870 5871 5871 5872 5873 5874 5875 5876 5877 5878 5878 5878 5878 5879 5879 5879 5879 5878 5877 5877 5876 5876 5876 5875 5873 5871 5869 5867 5865 5865 5865 5865 5865 5866 5868 5870 5873 5875 5877 5879 5880 5879 5879 5881 5884 5885 5886
5834 5834 5834 5835 5835 5835 5836 5836 5836 5837 5837 5838 5839 5839 5840 5841 5841 5842 5843 5845 5846 5847 5849 5850 5851 5853 5854 5855 5857 5858 5860 5861 5861 5862 5862 5863 5864 5865 5866 5867 5868 5868 5869 5870 5871 5872 5873 5874 5876 5877 5877 5878 5878 5878 5878 5879 5879 5879 5878 5877 5876 5875 5875 5874 5874 5873 5871 5869 5866 5864 5863 5863 5863 5864 5866 5867 5870 5871 5873 5875 5877 5878 5879 5880 5881 5884 5885 5885
5832 5832 5832 5832 5832 5832 5833 5833 5833 5833 5834 5835 5836 5836 5837 5837 5838 5839 5840 5841 5842 5843 5844 5846 5847 5849 5851 5852 5854 5856 5858 5859 5859 5860 5860 5861 5862 5863 5864 5865 5866 5866 5867 5868 5869 5870 5872 5874 5875 5876 5877 5877 5877 5877 5878 5879 5879 5878 5877 5876 5875 5874 5874 5873 5873 5872 5871 5868 5866 5864 5863 5863 5863 5863 5865 5867 5868 5870 5872 5874 5875 5877 5878 5879 5882 5884 5886 5886
5830 5830 5830 5829 5829 5829 5830 5830 5830 5830 5831 5832 5833 5833 5834 5834 5835 5836 5836 5837 5839 5840 5841 5842 5843 5845 5847 5848 5851 5854 5856 5856 5857 5858 5858 5859 5860 5861 5863 5863 5864 5865 5866 5868 5869 5870 5872 5873 5874 5875 5876 5876 5876 5876 5877 5878 5878 5877 5877 5876 5875 5874 5873 5872 5872 5871 5870 5868 5866 5864 5863 5863 5863 5863 5865 5866 5867 5868 5870 5872 5875 5876 5877 5879 5882 5885 5886 5886
5827 5827 5827 5827 5827 5827 5827 5827 5827 5828 5829 5829 5830 5830 5831 5831 5832 5833 5833 5834 5835 5836 5837 5838 5839 5841 5842 5845 5849 5852 5853 5853 5854 5855 5856 5857 5858 5859 5861 5862 5862 5864 5865 5867 5868 5869 5871 5872 5873 5874 5874 5875 5875 5876 5876 5877 5877 5877 5876 5876 5875 5874 5873 5872 5871 5870 5869 5868 5866 5864 5863 5863 5863 5863 5864 5865 5866 5867 5869 5872 5874 5876 5878 5880 5882 5884 5886 5886
5825 5825 5825 5824 5824 5824 5824 5825 5825 5825 5826 5826 5827 5828 5828 5829 5829 5830 5831 5832 5832 5833 5834 5835 5836 5837 5839 5842 5846 5848 5849 5850 5851 5853 5854 5854 5856 5857 5859 5860 5861 5863 5864 5865 5867 5868 5870 5870 5872 5873 5873 5874 5874 5875 5876 5876 5876 5876 5876 5876 5875 5874 5873 5872 5871 5870 5869 5867 5866 5864 5863 5863 5863 5863 5864 5864 5865 5867 5869 5871 5873 5875 5877 5880 5882 5884 5884 5885
5823 5823 5823 5822 5822 5822 5822 5822 5822 5823 5823 5824 5825 5825 5826 5827 5827 5828 5828 5829 5830 5830 5831 5832 5833 5834 5836 5839 5842 5844 5845 5846 5848 5850 5851 5852 5854 5856 5858 5859 5860 5862 5863 5864 5866 5868 5868 5869 5870 5872 5873 5873 5874 5875 5875 5875 5875 5875 5875 5875 5875 5874 5873 5872 5871 5870 5868 5867 5865 5864 5863 5862 5862 5862 5863 5863 5864 5866 5868 5870 5872 5874 5877 5880 5882 5883 5883 5885
5821 5821 5821 5820 5820 5820 5820 5820 5820 5821 5821 5822 5822 5823 5824 5824 5825 5825 5826 5827 5827 5828 5829 5829 5830 5831 5833 5836 5838 5840 5841 5843 5846 5848 5849 5850 5852 5855 5856 5857 5858 5860 5862 5864 5865 5867 5868 5868 5869 5871 5872 5872 5874 5874 5874 5874 5874 5874 5874 5874 5874 5873 5872 5871 5870 5869 5867 5866 5864 5863 5862 5862 5861 5861 5862 5862 5863 5865 5867 5869 5871 5873 5876 5879 5881 5882 5883 5885
5820 5820 5819 5819 5818 5818 5818 5818 5818 5819 5819 5819 5820 5821 5821 5822 5823 5823 5824 5824 5825 5825 5826 5827 5828 5829 5830 5833 5835 5836 5837 5841 5844 5845 5846 5849 5851 5853 5855 5856 5857 5859 5861 5862 5864 5865 5866 5867 5869 5870 5871 5872 5873 5873 5873 5873 5873 5874 5874 5873 5873 5872 5871 5870 5870 5868 5867 5865 5863 5862 5861 5861 5861 5861 5861 5862 5862 5863 5865 5867 5870 5873 5875 5878 5880 5881 5883 5886
5818 5818 5818 5817 5817 5816 5816 5817 5817 5817 5817 5817 5818 5819 5819 5820 5821 5821 5822 5822 5823 5824 5825 5825 5826 5827 5829 5830 5832 5833 5836 5840 5842 5843 5846 5848 5850 5852 5853 5855 5857 5858 5860 5861 5862 5863 5864 5866 5867 5869 5870 5871 5872 5872 5872 5872 5873 5873 5873 5873 5872 5871 5871 5870 5869 5868 5866 5864 5863 5861 5860 5860 5860 5860 5861 5862 5861 5862 5863 5866 5869 5871 5874 5876 5878 5881 5883 5885
5817 5817 5816 5816 5815 5815 5815 5815 5815 5815 5815 5816 5816 5817 5817 5818 5819 5819 5820 5821 5821 5822 5822 5823 5824 5825 5827 5828 5830 5831 5834 5837 5839 5841 5844 5846 5848 5851 5853 5854 5856 5857 5858 5860 5861 5862 5863 5865 5866 5868 5869 5870 5870 5871 5871 5871 5872 5872 5872 5872 5871 5871 5870 5869 5868 5867 5865 5863 5862 5861 5860 5860 5859 5859 5860 5861 5861 5862 5863 5864 5867 5870 5872 5875 5878 5880 5882 5885
5815 5815 5815 5814 5814 5814 5813 5813 5813 5813 5814 5814 5814 5815 5815 5816 5816 5817 5818 5819 5819 5820 5821 5822 5822 5824 5825 5826 5828 5829 5831 5834 5837 5840 5842 5844 5847 5850 5852 5853 5854 5855 5857 5858 5860 5861 5862 5864 5865 5867 5868 5868 5869 5870 5870 5870 5871 5871 5871 5871 5870 5870 5869 5869 5868 5866 5864 5862 5861 5860 5859 5859 5858 5858 5858 5858 5859 5860 5862 5864 5866 5869 5871 5874 5877 5879 5881 5883
5814 5814 5813 5813 5813 5812 5812 5812 5812 5811 5812 5812 5812 5813 5813 5814 5815 5816 5816 5816 5817 5818 5819 5820 5821 5822 5823 5825 5826 5827 5829 5832 5835 5838 5840 5843 5847 5849 5851 5852 5852 5853 5855 5857 5859 5861 5862 5863 5864 5866 5867 5867 5868 5869 5870 5870 5871 5871 5871 5871 5870 5869 5869 5868 5867 5866 5864 5862 5860 5859 5859 5858 5858 5857 5856 5856 5857 5858 5860 5862 5865 5867 5870 5873 5876 5878 5880 5882
5813 5813 5812 5812 5812 5811 5811 5810 5810 5810 5810 5810 5810 5811 5811 5812 5813 5814 5814 5814 5815 5817 5818 5818 5819 5820 5822 5823 5824 5826 5827 5830 5833 5836 5839 5842 5845 5847 5849 5849 5850 5852 5855 5857 5859 5860 5860 5861 5863 5864 5866 5867 5868 5869 5869 5870 5870 5871 5871 5870 5870 5869 5868 5867 5867 5865 5863 5861 5860 5859 5858 5858 5857 5856 5856 5856 5856 5857 5857 5860 5864 5866 5868 5871 5875 5877 5880 5883
5812 5812 5811 5811 5811 5810 5810 5809 5809 5809 5809 5809 5809 5810 5810 5811 5811 5812 5812 5813 5814 5815 5816 5817 5818 5819 5821 5821 5822 5824 5825 5827 5831 5834 5837 5840 5843 5845 5847 5847 5849 5852 5854 5855 5857 5857 5858 5860 5862 5864 5865 5866 5867 5868 5869 5869 5869 5870 5870 5870 5869 5868 5867 5867 5866 5865 5863 5861 5859 5858 5857 5857 5856 5856 5855 5855 5855 5855 5856 5859 5863 5865 5867 5870 5873 5876 5879 5882
5811 5811 5810 5810 5810 5809 5808 5808 5808 5808 5807 5807 5808 5808 5809 5809 5810 5810 5811 5812 5813 5814 5815 5816 5817 5818 5818 5819 5820 5822 5824 5827 5830 5832 5835 5837 5840 5843 5844 5845 5848 5851 5852 5854 5855 5855 5856 5859 5861 5863 5864 5865 5866 5867 5867 5867 5868 5869 5870 5869 5869 5868 5867 5866 5865 5865 5863 5861 5859 5858 5857 5856 5855 5855 5854 5854 5854 5854 5856 5859 5861 5863 5865 5869 5872 5876 5879 5882
5810 5810 5809 5809 5809 5808 5807 5807 5807 5806 5806 5806 5807 5807 5807 5808 5808 5809 5810 5811 5812 5813 5814 5815 5816 5816 5816 5817 5820 5822 5824 5826 5828 5830 5832 5835 5838 5840 5842 5844 5847 5849 5850 5852 5853 5854 5856 5858 5859 5861 5862 5863 5865 5865 5866 5867 5868 5869 5869 5868 5868 5868 5867 5866 5865 5864 5863 5861 5860 5858 5857 5856 5855 5854 5853 5854 5853 5853 5855 5858 5860 5862 5865 5869 5872 5876 5879 5882
5809 5809 5808 5808 5808 5807 5806 5806 5806 5805 5805 5805 5805 5806 5806 5807 5807 5808 5809 5810 5811 5812 5813 5814 5814 5815 5815 5817 5819 5820 5822 5824 5827 5829 5831 5833 5836 5838 5841 5843 5845 5847 5849 5851 5852 5853 5855 5856 5857 5859 5861 5862 5863 5864 5865 5867 5868 5868 5868 5867 5867 5867 5866 5865 5865 5864 5862 5861 5860 5859 5857 5856 5855 5854 5853 5853 5853 5853 5854 5857 5860 5863 5866 5869 5872 5876 5878 5881
5809 5808 5808 5807 5807 5806 5806 5805 5805 5805 5804 5804 5804 5805 5805 5806 5807 5808 5808 5810 5810 5810 5811 5813 5813 5814 5815 5816 5818 5819 5821 5823 5825 5827 5829 5832 5834 5837 5840 5842 5843 5845 5847 5850 5852 5852 5854 5855 5856 5858 5860 5862 5863 5864 5865 5866 5867 5868 5867 5867 5867 5866 5866 5865 5864 5864 5862 5861 5861 5859 5858 5856 5855 5854 5853 5853 5853 5853 5854 5857 5860 5863 5866 5869 5872 5875 5878 5880
5808 5808 5807 5807 5806 5806 5805 5805 5804 5804 5804 5804 5804 5804 5805 5806 5806 5807 5808 5809 5809 5810 5811 5812 5813 5813 5814 5816 5817 5819 5820 5822 5823 5825 5828 5831 5833 5836 5838 5840 5841 5843 5846 5849 5849 5850 5852 5853 5855 5858 5860 5861 5862 5864 5864 5865 5866 5867 5867 5866 5866 5866 5865 5864 5864 5863 5862 5862 5861 5860 5859 5857 5856 5855 5854 5854 5854 5854 5855 5858 5860 5862 5865 5868 5872 5874 5877 5880
5808 5807 5807 5806 5806 5805 5805 5804 5804 5804 5803 5803 5804 5804 5805 5805 5806 5806 5807 5808 5809 5809 5810 5811 5812 5813 5814 5815 5816 5817 5819 5821 5822 5824 5827 5830 5832 5835 5836 5837 5840 5842 5845 5847 5847 5848 5850 5852 5855 5858 5859 5860 5862 5863 5864 5865 5866 5867 5866 5866 5866 5865 5864 5864 5864 5864 5863 5862 5861 5860 5859 5858 5856 5855 5855 5855 5854 5855 5856 5858 5860 5861 5863 5867 5870 5873 5876 5879
5807 5807 5806 5806 5805 5805 5804 5804 5804 5804 5803 5803 5803 5804 5804 5805 5805 5806 5807 5808 5808 5809 5810 5811 5812 5813 5814 5815 5815 5816 5818 5820 5822 5824 5826 5828 5831 5833 5834 5836 5839 5841 5844 5846 5847 5848 5850 5852 5855 5857 5858 5860 5861 5862 5863 5864 5865 5866 5866 5866 5865 5864 5864 5864 5864 5864 5863 5863 5862 5861 5859 5858 5857 5856 5855 5855 5854 5854 5855 5857 5859 5862 5864 5867 5870 5873 5876 5879
5807 5806 5806 5805 5805 5805 5804 5804 5804 5804 5803 5803 5804 5804 5805 5805 5805 5806 5807 5808 5808 5809 5810 5811 5812 5813 5814 5815 5815 5816 5817 5819 5821 5823 5825 5827 5830 5832 5834 5836 5838 5841 5844 5846 5847 5848 5850 5852 5855 5856 5858 5859 5860 5861 5862 5863 5863 5864 5865 5865 5864 5863 5863 5863 5863 5863 5863 5863 5862 5861 5860 5858 5858 5857 5856 5855 5854 5853 5853 5854 5857 5861 5864 5868 5871 5873 5875 5878
5807 5806 5806 5805 5805 5805 5804 5804 5804 5804 5803 5804 5804 5804 5805 5806 5806 5807 5807 5808 5808 5809 5810 5810 5811 5812 5813 5814 5815 5816 5817 5819 5821 5823 5825 5827 5829 5831 5833 5835 5837 5840 5843 5845 5846 5847 5850 5852 5853 5855 5857 5858 5859 5860 5861 5861 5861 5862 5863 5863 5863 5863 5863 5863 5863 5863 5863 5863 5862 5861 5860 5859 5858 5858 5857 5856 5855 5854 5852 5852 5855 5859 5864 5869 5872 5874 5875 5878
5807 5806 5805 5805 5805 5805 5805 5804 5804 5804 5804 5804 5804 5805 5806 5806 5807 5807 5808 5809 5809 5809 5810 5810 5811 5812 5813 5814 5815 5815 5817 5818 5820 5822 5824 5827 5829 5831 5833 5834 5836 5839 5842 5843 5844 5846 5849 5850 5852 5853 5855 5856 5858 5859 5859 5860 5861 5862 5863 5863 5862 5862 5863 5863 5863 5863 5863 5862 5861 5861 5860 5859 5858 5858 5858 5857 5856 5854 5852 5852 5853 5856 5860 5866 5870 5873 5875 5878
5806 5806 5805 5805 5805 5805 5805 5804 5804 5804 5804 5805 5805 5806 5806 5807 5807 5808 5809 5809 5809 5810 5811 5811 5811 5812 5813 5814 5815 5815 5816 5818 5819 5821 5823 5826 5828 5830 5832 5834 5836 5839 5841 5842 5844 5846 5848 5850 5851 5852 5854 5855 5857 5857 5858 5860 5860 5861 5862 5862 5862 5862 5862 5862 5862 5863 5863 5862 5861 5861 5860 5859 5858 5858 5859 5858 5857 5856 5854 5854 5854 5854 5856 5862 5868 5872 5875 5878
5806 5805 5805 5805 5805 5805 5805 5804 5804 5804 5805 5805 5806 5806 5807 5808 5808 5809 5809 5809 5810 5810 5811 5811 5811 5812 5813 5814 5815 5816 5816 5817 5819 5821 5823 5824 5826 5828 5830 5832 5835 5837 5840 5842 5843 5845 5848 5849 5850 5851 5853 5854 5855 5856 5857 5858 5859 5861 5861 5861 5861 5862 5862 5862 5862 5863 5862 5862 5861 5861 5860 5859 5858 5859 5859 5858 5858 5857 5856 5856 5857 5857 5859 5863 5868 5872 5875 5878
5805 5805 5805 5805 5804 5804 5804 5804 5804 5805 5805 5806 5806 5807 5807 5808 5809 5809 5810 5810 5810 5810 5811 5811 5812 5812 5813 5814 5815 5816 5817 5818 5819 5820 5822 5824 5826 5828 5829 5831 5833 5836 5838 5840 5842 5844 5846 5848 5848 5850 5852 5852 5853 5855 5856 5857 5858 5860 5860 5860 5860 5861 5862 5862 5862 5862 5862 5862 5861 5861 5860 5859 5859 5859 5860 5859 5859 5859 5858 5858 5858 5860 5862 5866 5869 5872 5876 5878
5805 5805 5805 5804 5804 5804 5804 5804 5805 5805 5805 5806 5806 5807 5808 5809 5810 5810 5811 5811 5811 5811 5811 5811 5812 5813 5813 5814 5815 5816 5817 5818 5819 5821 5822 5824 5825 5827 5828 5830 5832 5834 5836 5838 5840 5841 5844 5845 5846 5848 5850 5850 5852 5854 5855 5855 5857 5858 5859 5859 5860 5860 5861 5861 5862 5862 5862 5862 5862 5861 5861 5860 5859 5859 5860 5860 5859 5859 5859 5859 5859 5861 5864 5868 5871 5873 5875 5877
5805 5805 5804 5804 5804 5804 5804 5805 5805 5805 5805 5806 5806 5808 5809 5810 5811 5811 5811 5811 5812 5812 5812 5812 5812 5813 5813 5814 5814 5815 5816 5817 5819 5820 5822 5824 5825 5826 5828 5829 5831 5832 5834 5836 5838 5840 5842 5843 5845 5846 5848 5849 5851 5853 5853 5854 5855 5856 5857 5858 5859 5860 5860 5861 5861 5862 5861 5862 5862 5862 5861 5861 5860 5860 5860 5860 5860 5859 5859 5859 5860 5864 5867 5870 5872 5874 5875 5877
5804 5804 5804 5804 5804 5804 5805 5805 5805 5805 5805 5806 5807 5808 5809 5810 5811 5811 5812 5812 5812 5812 5813 5813 5813 5814 5814 5814 5815 5815 5816 5817 5818 5820 5821 5823 5825 5826 5827 5828 5830 5831 5832 5834 5836 5838 5839 5841 5843 5845 5846 5848 5850 5851 5852 5853 5854 5855 5856 5857 5858 5859 5860 5860 5861 5861 5861 5862 5862 5862 5862 5861 5861 5860 5861 5861 5860 5860 5859 5859 5861 5865 5868 5870 5872 5874 5876 5878
5803 5804 5804 5804 5804 5804 5804 5805 5805 5806 5806 5806 5806 5807 5808 5809 5810 5811 5811 5812 5812 5812 5813 5814 5814 5815 5815 5815 5815 5816 5817 5818 5819 5820 5822 5823 5824 5825 5826 5827 5828 5830 5832 5834 5835 5837 5838 5840 5842 5843 5845 5847 5849 5851 5851 5852 5853 5854 5855 5856 5857 5858 5858 5859 5860 5860 5861 5861 5861 5861 5862 5862 5862 5861 5861 5861 5861 5861 5861 5861 5862 5864 5867 5870 5872 5874 5876 5878
5803 5803 5803 5803 5803 5804 5804 5805 5805 5806 5806 5806 5806 5807 5807 5808 5809 5810 5810 5811 5811 5812 5813 5814 5815 5814 5814 5815 5817 5817 5818 5819 5820 5821 5822 5822 5823 5824 5824 5824 5826 5827 5829 5831 5834 5836 5838 5839 5841 5842 5844 5847 5849 5850 5851 5852 5853 5854 5855 5856 5856 5857 5858 5858 5859 5859 5860 5861 5861 5861 5862 5862 5862 5862 5861 5861 5861 5862 5862 5862 5863 5864 5866 5869 5872 5874 5875 5877
5802 5802 5802 5802 5803 5803 5803 5804 5805 5805 5805 5805 5805 5806 5807 5807 5808 5808 5809 5810 5811 5812 5813 5814 5814 5814 5814 5816 5817 5818 5818 5819 5820 5820 5821 5821 5821 5822 5822 5823 5825 5826 5827 5829 5831 5834 5836 5838 5840 5842 5844 5847 5848 5849 5851 5852 5853 5854 5854 5855 5856 5857 5857 5858 5858 5858 5859 5860 5860 5861 5861 5862 5862 5862 5862 5862 5861 5862 5863 5863 5864 5865 5866 5868 5870 5873 5874 5876
5802 5802 5802 5802 5802 5802 5803 5803 5804 5804 5804 5805 5805 5806 5806 5807 5807 5807 5808 5809 5810 5811 5812 5813 5814 5814 5815 5817 5818 5818 5819 5819 5819 5820 5821 5821 5821 5822 5823 5824 5826 5827 5828 5829 5831 5833 5836 5838 5840 5841 5844 5846 5848 5849 5850 5851 5852 5852 5853 5854 5855 5856 5856 5857 5857 5858 5858 5859 5860 5861 5861 5861 5862 5862 5862 5862 5862 5862 5863 5864 5864 5865 5866 5867 5869 5871 5873 5876
5801 5801 5801 5801 5801 5802 5802 5803 5803 5803 5803 5804 5804 5805 5806 5806 5806 5806 5806 5808 5808 5809 5810 5812 5813 5814 5815 5817 5818 5818 5819 5819 5819 5820 5821 5821 5822 5823 5824 5826 5826 5827 5828 5829 5830 5832 5835 5837 5839 5841 5844 5846 5847 5848 5849 5849 5850 5851 5851 5852 5854 5855 5856 5856 5857 5857 5858 5858 5859 5860 5861 5861 5861 5862 5862 5862 5862 5862 5863 5864 5865 5866 5867 5868 5869 5871 5873 5875
5801 5800 5800 5800 5800 5801 5801 5802 5802 5802 5802 5803 5803 5804 5805 5805 5805 5805 5805 5806 5807 5808 5809 5810 5811 5813 5814 5816 5817 5818 5818 5819 5819 5820 5820 5821 5823 5824 5825 5826 5827 5827 5828 5828 5829 5830 5832 5835 5838 5841 5843 5845 5845 5845 5846 5847 5848 5849 5850 5851 5853 5854 5855 5855 5856 5857 5857 5857 5858 5859 5860 5860 5861 5862 5862 5862 5862 5862 5862 5863 5864 5865 5867 5868 5869 5871 5873 5875
5800 5799 5799 5799 5799 5800 5800 5801 5801 5801 5801 5802 5802 5803 5803 5804 5804 5804 5804 5805 5805 5807 5808 5808 5810 5811 5813 5814 5816 5817 5818 5819 5820 5820 5821 5822 5823 5824 5825 5826 5827 5828 5828 5829 5829 5830 5831 5833 5836 5839 5842 5842 5843 5843 5845 5846 5847 5848 5849 5851 5852 5853 5854 5855 5856 5857 5857 5857 5858 5858 5858 5859 5860 5861 5861 5862 5861 5861 5861 5862 5863 5864 5866 5867 5869 5871 5873 5875
5798 5798 5798 5798 5798 5799 5799 5799 5800 5800 5800 5800 5801 5801 5802 5802 5802 5803 5803 5803 5804 5806 5807 5807 5808 5810 5811 5813 5815 5817 5818 5819 5820 5820 5821 5822 5823 5824 5825 5826 5827 5828 5828 5829 5830 5831 5832 5833 5835 5837 5840 5840 5841 5842 5844 5845 5846 5847 5848 5850 5851 5852 5853 5854 5855 5856 5857 5857 5858 5858 5858 5858 5859 5859 5861 5861 5861 5861 5860 5861 5861 5863 5865 5866 5868 5870 5872 5874
5797 5797 5797 5797 5797 5797 5797 5798 5798 5799 5799 5799 5800 5800 5800 5801 5801 5801 5802 5802 5803 5804 5805 5806 5807 5808 5810 5812 5814 5816 5818 5819 5820 5821 5821 5823 5824 5824 5825 5826 5826 5827 5828 5829 5830 5831 5832 5833 5833 5836 5837 5838 5840 5841 5842 5844 5845 5846 5847 5849 5850 5851 5852 5853 5854 5855 5856 5857 5857 5857 5858 5858 5858 5859 5859 5861 5861 5861 5860 5860 5860 5861 5863 5865 5867 5869 5871 5873
5795 5795 5795 5795 5795 5796 5796 5796 5797 5797 5797 5798 5798 5798 5799 5799 5799 5799 5800 5801 5802 5803 5804 5805 5806 5807 5808 5810 5811 5814 5816 5817 5818 5820 5821 5822 5823 5824 5825 5825 5826 5827 5827 5828 5829 5830 5831 5832 5833 5834 5836 5837 5838 5840 5841 5842 5844 5845 5846 5848 5849 5850 5851 5852 5853 5854 5855 5856 5857 5858 5858 5859 5858 5858 5858 5859 5860 5860 5860 5859 5859 5860 5862 5864 5866 5868 5870 5872
5793 5793 5793 5793 5794 5794 5794 5794 5795 5795 5796 5796 5796 5797 5797 5797 5797 5798 5799 5800 5800 5801 5802 5803 5804 5805 5806 5808 5809 5811 5813 5815 5816 5818 5819 5820 5822 5823 5824 5825 5825 5826 5827 5827 5828 5830 5830 5831 5832 5834 5835 5836 5837 5838 5840 5841 5842 5844 5845 5846 5847 5848 5849 5850 5852 5853 5855 5856 5857 5858 5859 5859 5858 5857 5857 5858 5859 5859 5859 5858 5858 5858 5860 5863 5865 5866 5868 5870
5791 5791 5791 5791 5792 5792 5792 5793 5793 5794 5794 5794 5794 5795 5795 5795 5795 5796 5797 5798 5798 5799 5800 5801 5802 5803 5804 5806 5807 5809 5811 5812 5814 5816 5817 5818 5819 5821 5822 5824 5825 5825 5826 5827 5828 5829 5830 5831 5832 5833 5835 5835 5836 5838 5839 5839 5841 5842 5843 5844 5846 5847 5848 5849 5851 5853 5854 5855 5857 5858 5858 5858 5859 5858 5857 5857 5858 5858 5857 5857 5857 5857 5859 5861 5862 5864 5866 5869